AirNav   ProFlight Series 2 Aviation Headset
 
 1060 users online  

4KS7 Butler Airpark
Rose Hill, Kansas, USA

GOING TO ROSE HILL?


FAA INFORMATION EFFECTIVE 18 JUNE 2020

Location

FAA Identifier: 4KS7
Lat/Long: 37-33-32.0680N 097-03-54.1380W
37-33.534467N 097-03.902300W
37.5589078,-97.0650383
(estimated)
Elevation: 1310 ft. / 399 m (estimated)
Variation: 07E (1985)
From city: 3 miles E of ROSE HILL, KS
Time zone: UTC -5 (UTC -6 during Standard Time)
Zip code: 67133

Airport Operations

Airport use: Private use. Permission required prior to landing
Activation date: 04/1991
Control tower: no
ARTCC: KANSAS CITY CENTER
FSS: WICHITA FLIGHT SERVICE STATION
Attendance: IREG
Wind indicator: yes
Segmented circle: yes

Airport Communications

WX AWOS-3PT at 3AU (7 nm N): 124.175 (316-733-6696)
WX AWOS-3PT at BEC (11 nm NW): 119.45 (316-515-7116)
WX AWOS-3 at 1K1 (13 nm N): 118.3 (316-530-6004)
WX ASOS at AAO (14 nm NW): 134.025 (316-636-2541)
WX AWOS-3P at EQA (17 nm NE): 120.875 (316-322-8095)
WX ASOS at ICT (18 nm W): PHONE 316-945-8022

Nearby radio navigation aids

VOR radial/distance  VOR name  Freq  Var
ICTr107/27.1WICHITA VORTAC113.8007E

 
NDB name  Hdg/Dist  Freq  Var  ID
NEWTON156/31.928106EEWK . .-- -.-

Airport Services

Runway Information

Runway 1/19

Dimensions: 2687 x 40 ft. / 819 x 12 m
Surface: turf
RUNWAY 1  RUNWAY 19
Traffic pattern: rightleft
Obstructions: 15 ft. road, 30 ft. from runwaynone

Airport Ownership and Management from official FAA records

Ownership: Privately-owned
Owner: BUTLER AIRPARK HOMEOWNERS ASSN INC
PO BOX 14
ROSE HILL, KS 67133
Phone (316) 925-2215
Manager: MILO D. MCCLURE
18404 SW PRAIRIE RIDGE RD
ROSE HILL, KS 67133
Phone (316) 925-2215

Airport Operational Statistics

Aircraft based on the field: 8
Single engine airplanes: 6
Ultralights: 2
    

Additional Remarks

ALL TRAFFIC REMAIN EAST OF RY.
FOR CD CTC WICHITA APCH AT 316-350-1520.

Instrument Procedures

There are no published instrument procedures at 4KS7.

Some nearby airports with instrument procedures:

3AU - Augusta Municipal Airport (7 nm N)
KCEA - Cessna Aircraft Field Airport (10 nm NW)
KIAB - Mc Connell Air Force Base (10 nm W)
KBEC - Beech Factory Airport (11 nm NW)
1K1 - Lloyd Stearman Field Airport (13 nm N)
KAAO - Colonel James Jabara Airport (14 nm NW)
KEQA - El Dorado/Captain Jack Thomas Memorial Airport (17 nm NE)
KICT - Wichita Dwight D Eisenhower National Airport (18 nm W)
 
Loc | Ops | Rwys | IFR | FBO | Links
Com | Nav | Svcs | Stats | Notes
Area around 4KS7 (Butler Airpark)
 
Road maps at: MapQuest Bing Google
 
Aerial photo
WARNING: Photo may not be current or correct
Aerial photo of 4KS7 (Butler Airpark)
Photo by Brian FitzGerald
Photo taken 15-Jun-2016
from 1/2 mile SSW at 900 AGL.

Do you have a better or more recent aerial photo of Butler Airpark that you would like to share? If so, please send us your photo.

 
Sectional chart

 
Airport distance calculator
Flying to Butler Airpark? Find the distance to fly.

From to 4KS7

Sunrise and sunset
Times for 12-Jul-2020
 Local
(UTC-5)
 Zulu
(UTC)
Morning civil twilight05:4810:48
Sunrise06:1911:19
Sunset20:4901:49
Evening civil twilight21:2002:20

Current date and time
Zulu (UTC)  12-Jul-2020 17:37:56
Local (UTC-5)  12-Jul-2020 12:37:56
 
METAR
K3AU 
7nm N 
121715Z AUTO 04006KT 10SM CLR 28/15 A3001 RMK AO2
KIAB 
10nm W 
121656Z AUTO 05005KT 10SM CLR 30/15 A3002 RMK AO2 SLP152 T02950152 $
KBEC 
11nm NW 
121715Z AUTO 05003KT 10SM CLR 29/15 A3001 RMK AO2 LTG DSNT NW T02920154
K1K1 
13nm N 
121715Z AUTO 00000KT 10SM CLR 28/15 A3002 RMK AO2 T02830147
KAAO 
14nm NW 
121654Z AUTO VRB04KT 10SM CLR 29/15 A3002 RMK AO2 SLP151 T02940150
KEQA 
17nm NE 
121715Z AUTO 00000KT 10SM CLR 30/12 A3001 RMK AO2
KICT 
18nm W 
121653Z 04007KT 10SM FEW170 FEW220 30/17 A3001 RMK AO2 SLP145 T03000172 $
TAF
KIAB 
10nm W 
121203Z 1212/1318 VRB06KT 9999 FEW250 QNH3002INS BECMG 1214/1215 07009KT 9999 SKC QNH2993INS BECMG 1302/1303 VRB06KT 9999 SKC QNH2994INS BECMG 1311/1312 VRB06KT 9999 BKN070 OVC090 510042 QNH2995INS BECMG 1314/1315 14012KT 9999 FEW070 SCT120 QNH2991INS TX33/1222Z TN20/1312Z LAST NO AMDS AFT 1212 NEXT 1310
KICT 
18nm W 
121120Z 1212/1312 05006KT P6SM SKC FM122000 07008KT P6SM SCT080
NOTAMs
Click for the latest NOTAMs
NOTAMs are issued by the DoD/FAA and will open in a separate window not controlled by AirNav.

 

 
 

Would you like to see your business listed on this page?

 If your business provides an interesting product or service to pilots, flight crews, aircraft, or users of the Butler Airpark, you should consider listing it here.  To start the listing process, click on the button below
 
Add a business
 

Other Pages about Butler Airpark

Update a link
 
Copyright © AirNav, LLC. All rights reserved. Privacy Policy  Contact